If you wish to contribute or participate in the discussions about articles you are invited to join SKYbrary as a registered user

 Actions

Luqa

From SKYbrary Wiki

LMML
Airport
ICAO: LMML
Summary
Name Luqa
Region Europe
Territory Malta MT.gif
Location Luqa
Serving
Coordinates 35° 51' 25.41" N, 14° 28' 40.20" E
Runways
Designator Length Width Surface ROPS
5/23 2377 m7,798.556 ft <br /> 45 m147.638 ft <br /> ASP yes/yes
13/31 3544 m11,627.297 ft <br /> 60 m196.85 ft <br /> ASP yes/yes


METAR
Observation LMML 271915Z 07015KT 040V100 9999 -RA BKN019 20/16 Q1018 TEMPO 7000 TSRA BKN015CB
Station Luqa
Date/Time 27 October 2021 19:15:00
Wind direction 70°
Wind speed 15 kts
Lowest cloud amount broken clouds
Temperature 20°C
Dew point 16°C
Humidity 77%
QNH 1018 hPa
Weather condition light rain

Luqa Airport

ICAO: LMML IATA: MLA

Description

International airport serving the island of Malta.

Climatology

Dry-summer subtropical ”Mediterranean" climate (Köppen climate classification Csa) - characterized by hot, dry summers and mild winters. During the summer, subtropical high pressure cells dominate, making rainfall unlikely except for the occasional thunderstorm. In the winter, periodic storms bring rain.

Maps

Terrain

Loading map...

Airport Layout

Loading map...


Accidents & Serious Incidents at or in vicinity of LMML

None on SKYbrary